Wetterdaten: Freitag, 18.03.2016
Datum Zeit Auen-Temp. Temp gefhlt Luftfeuchte Luftdruck Regen Wind Richtung Richtung Sonnenschein Taupunkt Windben
18.03.2016 00:00 -2,3 C -2,8 C 84 % 1019,8 hPa 0,0 mm 0,0 km/h (0 Bft) O-NO 67 0 min -4,6 C 0,0 km/h (0 Bft)
18.03.2016 00:05 -2,2 C -2,7 C 84 % 1019,8 hPa 0,0 mm 0,0 km/h (0 Bft) O-SO 112 0 min -4,5 C 0,0 km/h (0 Bft)
18.03.2016 00:10 -2,2 C -2,8 C 85 % 1019,9 hPa 0,0 mm 0,0 km/h (0 Bft) NW 315 0 min -4,4 C 0,0 km/h (0 Bft)
18.03.2016 00:15 -2,5 C -3,0 C 84 % 1019,9 hPa 0,0 mm 0,0 km/h (0 Bft) O-NO 67 0 min -4,8 C 0,0 km/h (0 Bft)
18.03.2016 00:20 -2,8 C -3,3 C 84 % 1019,9 hPa 0,0 mm 0,0 km/h (0 Bft) N-NO 22 0 min -5,1 C 0,0 km/h (0 Bft)
18.03.2016 00:25 -2,9 C -3,4 C 84 % 1019,9 hPa 0,0 mm 0,0 km/h (0 Bft) SW 225 0 min -5,2 C 0,0 km/h (0 Bft)
18.03.2016 00:30 -2,6 C -3,2 C 84 % 1019,8 hPa 0,0 mm 0,0 km/h (0 Bft) W 270 0 min -4,9 C 0,0 km/h (0 Bft)
18.03.2016 00:35 -2,9 C -3,3 C 84 % 1019,8 hPa 0,0 mm 0,0 km/h (0 Bft) NW 315 0 min -5,2 C 0,0 km/h (0 Bft)
18.03.2016 00:40 -3,0 C -3,4 C 84 % 1019,8 hPa 0,0 mm 0,0 km/h (0 Bft) W 270 0 min -5,3 C 0,0 km/h (0 Bft)
18.03.2016 00:45 -3,1 C -3,6 C 84 % 1019,8 hPa 0,0 mm 0,0 km/h (0 Bft) N 360 0 min -5,4 C 0,0 km/h (0 Bft)
18.03.2016 00:50 -2,9 C -3,3 C 84 % 1019,7 hPa 0,0 mm 0,0 km/h (0 Bft) NO 45 0 min -5,2 C 0,0 km/h (0 Bft)
18.03.2016 00:55 -3,2 C -3,4 C 84 % 1019,7 hPa 0,0 mm 0,0 km/h (0 Bft) N-NO 22 0 min -5,5 C 0,0 km/h (0 Bft)
18.03.2016 01:00 -3,0 C -3,3 C 84 % 1019,7 hPa 0,0 mm 0,0 km/h (0 Bft) SO 135 0 min -5,3 C 0,0 km/h (0 Bft)
18.03.2016 01:05 -2,8 C -3,3 C 85 % 1019,7 hPa 0,0 mm 0,0 km/h (0 Bft) O 90 0 min -5,0 C 0,0 km/h (0 Bft)
18.03.2016 01:10 -3,1 C -3,4 C 85 % 1019,8 hPa 0,0 mm 0,0 km/h (0 Bft) NW 315 0 min -5,3 C 0,0 km/h (0 Bft)
18.03.2016 01:15 -3,2 C -3,5 C 84 % 1019,8 hPa 0,0 mm 0,0 km/h (0 Bft) N-NO 22 0 min -5,5 C 0,0 km/h (0 Bft)
18.03.2016 01:20 -3,3 C -3,6 C 84 % 1019,8 hPa 0,0 mm 0,0 km/h (0 Bft) N-NO 22 0 min -5,6 C 0,0 km/h (0 Bft)
18.03.2016 01:25 -3,3 C -3,7 C 85 % 1019,8 hPa 0,0 mm 0,3 km/h (0 Bft) SW 225 0 min -5,5 C 4,5 km/h (1 Bft)
18.03.2016 01:30 -3,4 C -3,7 C 85 % 1019,7 hPa 0,0 mm 0,3 km/h (0 Bft) N-NW 337 0 min -5,5 C 0,0 km/h (0 Bft)
18.03.2016 01:35 -3,0 C -3,4 C 85 % 1019,7 hPa 0,0 mm 0,3 km/h (0 Bft) W-SW 247 0 min -5,2 C 0,0 km/h (0 Bft)
18.03.2016 01:40 -3,0 C -3,4 C 85 % 1019,7 hPa 0,0 mm 0,0 km/h (0 Bft) W 270 0 min -5,2 C 0,0 km/h (0 Bft)
18.03.2016 01:45 -3,2 C -3,6 C 85 % 1019,7 hPa 0,0 mm 0,0 km/h (0 Bft) W-NW 292 0 min -5,4 C 0,0 km/h (0 Bft)
18.03.2016 01:50 -3,3 C -3,7 C 85 % 1019,5 hPa 0,0 mm 0,0 km/h (0 Bft) W 270 0 min -5,5 C 0,0 km/h (0 Bft)
18.03.2016 01:55 -3,3 C -3,7 C 85 % 1019,5 hPa 0,0 mm 0,0 km/h (0 Bft) O-NO 67 0 min -5,5 C 0,0 km/h (0 Bft)
18.03.2016 02:00 -3,5 C -3,8 C 85 % 1019,5 hPa 0,0 mm 0,0 km/h (0 Bft) W 270 0 min -5,6 C 0,0 km/h (0 Bft)
18.03.2016 02:05 -3,3 C -3,7 C 85 % 1019,5 hPa 0,0 mm 0,0 km/h (0 Bft) O-SO 112 0 min -5,5 C 0,0 km/h (0 Bft)
18.03.2016 02:10 -3,2 C -3,6 C 85 % 1019,2 hPa 0,0 mm 0,0 km/h (0 Bft) NW 315 0 min -5,4 C 0,0 km/h (0 Bft)
18.03.2016 02:13 -3,3 C -3,7 C 85 % 1019,2 hPa 0,0 mm 0,0 km/h (0 Bft) N 360 0 min -5,5 C 0,0 km/h (0 Bft)
18.03.2016 02:14 -3,3 C -3,7 C 85 % 1019,2 hPa 0,0 mm 0,0 km/h (0 Bft) N 360 0 min -5,5 C 0,0 km/h (0 Bft)
18.03.2016 02:15 -3,3 C -3,7 C 85 % 1019,2 hPa 0,0 mm 0,0 km/h (0 Bft) N 360 0 min -5,5 C 0,0 km/h (0 Bft)
18.03.2016 02:20 -3,3 C -3,7 C 85 % 1019,2 hPa 0,0 mm 0,0 km/h (0 Bft) NO 45 0 min -5,5 C 0,0 km/h (0 Bft)
18.03.2016 02:25 -3,0 C -3,5 C 86 % 1019,2 hPa 0,0 mm 0,0 km/h (0 Bft) SO 135 0 min -5,0 C 0,0 km/h (0 Bft)
18.03.2016 02:30 -3,1 C -3,5 C 86 % 1019,1 hPa 0,0 mm 0,0 km/h (0 Bft) N-NO 22 0 min -5,1 C 0,0 km/h (0 Bft)
18.03.2016 02:35 -3,6 C -3,8 C 86 % 1019,1 hPa 0,0 mm 0,0 km/h (0 Bft) NO 45 0 min -5,6 C 0,0 km/h (0 Bft)
18.03.2016 02:40 -3,4 C -3,7 C 86 % 1019,1 hPa 0,0 mm 0,0 km/h (0 Bft) W 270 0 min -5,4 C 0,0 km/h (0 Bft)
18.03.2016 02:45 -3,4 C -3,8 C 86 % 1019,1 hPa 0,0 mm 0,0 km/h (0 Bft) W 270 0 min -5,4 C 0,0 km/h (0 Bft)
18.03.2016 02:50 -3,3 C -3,7 C 86 % 1018,9 hPa 0,0 mm 0,0 km/h (0 Bft) W 270 0 min -5,3 C 0,0 km/h (0 Bft)
18.03.2016 02:55 -3,6 C -4,0 C 86 % 1018,9 hPa 0,0 mm 0,0 km/h (0 Bft) W 270 0 min -5,6 C 0,0 km/h (0 Bft)
18.03.2016 03:00 -3,7 C -4,1 C 86 % 1018,9 hPa 0,0 mm 0,0 km/h (0 Bft) W 270 0 min -5,7 C 0,0 km/h (0 Bft)
18.03.2016 03:05 -3,7 C -4,1 C 86 % 1018,9 hPa 0,0 mm 0,0 km/h (0 Bft) W 270 0 min -5,7 C 0,0 km/h (0 Bft)
18.03.2016 03:10 -3,5 C -4,0 C 86 % 1018,9 hPa 0,0 mm 0,0 km/h (0 Bft) W 270 0 min -5,5 C 0,0 km/h (0 Bft)
18.03.2016 03:15 -3,5 C -4,0 C 86 % 1018,9 hPa 0,0 mm 0,0 km/h (0 Bft) W 270 0 min -5,5 C 0,0 km/h (0 Bft)
18.03.2016 03:20 -3,3 C -3,9 C 86 % 1018,9 hPa 0,0 mm 0,0 km/h (0 Bft) NW 315 0 min -5,3 C 0,0 km/h (0 Bft)
18.03.2016 03:25 -3,4 C -3,9 C 86 % 1018,9 hPa 0,0 mm 0,0 km/h (0 Bft) S-SO 157 0 min -5,4 C 0,0 km/h (0 Bft)
18.03.2016 03:30 -3,1 C -3,7 C 87 % 1018,4 hPa 0,0 mm 0,0 km/h (0 Bft) W-SW 247 0 min -4,9 C 0,0 km/h (0 Bft)
18.03.2016 03:35 -2,6 C -3,1 C 83 % 1018,4 hPa 0,0 mm 0,0 km/h (0 Bft) SO 135 0 min -5,1 C 3,3 km/h (1 Bft)
18.03.2016 03:40 -3,0 C -3,4 C 88 % 1018,4 hPa 0,0 mm 0,0 km/h (0 Bft) N-NW 337 0 min -4,7 C 0,0 km/h (0 Bft)
18.03.2016 03:45 -2,6 C -3,1 C 88 % 1018,4 hPa 0,0 mm 0,0 km/h (0 Bft) SO 135 0 min -4,3 C 0,0 km/h (0 Bft)
18.03.2016 03:50 -2,3 C -2,9 C 89 % 1018,5 hPa 0,0 mm 0,0 km/h (0 Bft) NO 45 0 min -3,9 C 0,0 km/h (0 Bft)
18.03.2016 03:55 -2,4 C -2,9 C 89 % 1018,5 hPa 0,0 mm 0,0 km/h (0 Bft) NW 315 0 min -4,0 C 0,0 km/h (0 Bft)
18.03.2016 04:00 -2,8 C -3,2 C 89 % 1018,5 hPa 0,0 mm 0,0 km/h (0 Bft) S 180 0 min -4,4 C 0,0 km/h (0 Bft)
18.03.2016 04:05 -3,2 C -3,6 C 88 % 1018,5 hPa 0,0 mm 0,0 km/h (0 Bft) W 270 0 min -4,9 C 0,0 km/h (0 Bft)
18.03.2016 04:10 -2,9 C -3,5 C 89 % 1018,4 hPa 0,0 mm 0,0 km/h (0 Bft) S 180 0 min -4,5 C 0,0 km/h (0 Bft)
18.03.2016 04:15 -2,6 C -3,3 C 89 % 1018,4 hPa 0,0 mm 0,0 km/h (0 Bft) S-SO 157 0 min -4,2 C 0,0 km/h (0 Bft)
18.03.2016 04:20 -2,8 C -3,4 C 89 % 1018,4 hPa 0,0 mm 0,0 km/h (0 Bft) SO 135 0 min -4,4 C 0,0 km/h (0 Bft)
18.03.2016 04:25 -3,3 C -3,7 C 88 % 1018,4 hPa 0,0 mm 0,0 km/h (0 Bft) NW 315 0 min -5,0 C 0,0 km/h (0 Bft)
18.03.2016 04:30 -3,5 C -3,9 C 88 % 1018,4 hPa 0,0 mm 0,0 km/h (0 Bft) N-NO 22 0 min -5,2 C 0,0 km/h (0 Bft)
18.03.2016 04:35 -3,5 C -3,9 C 88 % 1018,4 hPa 0,0 mm 0,0 km/h (0 Bft) S-SO 157 0 min -5,2 C 0,0 km/h (0 Bft)
18.03.2016 04:40 -3,4 C -3,8 C 88 % 1018,4 hPa 0,0 mm 0,0 km/h (0 Bft) SW 225 0 min -5,1 C 0,0 km/h (0 Bft)
18.03.2016 04:45 -3,4 C -3,8 C 88 % 1018,4 hPa 0,0 mm 0,0 km/h (0 Bft) N 360 0 min -5,1 C 0,0 km/h (0 Bft)
18.03.2016 04:50 -3,6 C -3,9 C 88 % 1018,2 hPa 0,0 mm 0,0 km/h (0 Bft) W-NW 292 0 min -5,3 C 0,0 km/h (0 Bft)
18.03.2016 04:55 -3,7 C -4,0 C 87 % 1018,2 hPa 0,0 mm 0,0 km/h (0 Bft) W 270 0 min -5,5 C 0,0 km/h (0 Bft)
18.03.2016 05:00 -3,5 C -3,9 C 88 % 1018,2 hPa 0,0 mm 0,0 km/h (0 Bft) W 270 0 min -5,2 C 0,0 km/h (0 Bft)
18.03.2016 05:05 -3,4 C -3,9 C 88 % 1018,2 hPa 0,0 mm 0,0 km/h (0 Bft) NW 315 0 min -5,1 C 0,0 km/h (0 Bft)
18.03.2016 05:10 -3,5 C -3,9 C 88 % 1018,2 hPa 0,0 mm 0,0 km/h (0 Bft) W 270 0 min -5,2 C 0,0 km/h (0 Bft)
18.03.2016 05:13 -3,2 C -3,8 C 88 % 1018,2 hPa 0,0 mm 0,0 km/h (0 Bft) N 360 0 min -4,9 C 0,0 km/h (0 Bft)
18.03.2016 05:15 -3,2 C -3,8 C 88 % 1018,2 hPa 0,0 mm 0,0 km/h (0 Bft) N 360 0 min -4,9 C 0,0 km/h (0 Bft)
18.03.2016 05:20 -3,6 C -4,0 C 88 % 1018,2 hPa 0,0 mm 0,0 km/h (0 Bft) W-NW 292 0 min -5,3 C 0,0 km/h (0 Bft)
18.03.2016 05:25 -3,6 C -4,1 C 88 % 1018,2 hPa 0,0 mm 0,0 km/h (0 Bft) W 270 0 min -5,3 C 0,0 km/h (0 Bft)
18.03.2016 05:30 -3,7 C -4,1 C 88 % 1018,2 hPa 0,0 mm 0,0 km/h (0 Bft) NW 315 0 min -5,4 C 0,0 km/h (0 Bft)
18.03.2016 05:35 -3,5 C -4,0 C 88 % 1018,2 hPa 0,0 mm 0,0 km/h (0 Bft) NW 315 0 min -5,2 C 0,0 km/h (0 Bft)
18.03.2016 05:40 -3,6 C -4,1 C 88 % 1018,2 hPa 0,0 mm 0,0 km/h (0 Bft) W-NW 292 0 min -5,3 C 0,0 km/h (0 Bft)
18.03.2016 05:45 -3,5 C -4,0 C 83 % 1018,2 hPa 0,0 mm 0,0 km/h (0 Bft) NW 315 0 min -6,0 C 0,0 km/h (0 Bft)
18.03.2016 05:50 -3,5 C -4,0 C 88 % 1017,9 hPa 0,0 mm 0,0 km/h (0 Bft) NW 315 0 min -5,2 C 0,0 km/h (0 Bft)
18.03.2016 05:55 -3,8 C -4,2 C 88 % 1017,9 hPa 0,0 mm 0,0 km/h (0 Bft) W 270 0 min -5,5 C 0,0 km/h (0 Bft)
18.03.2016 06:00 -4,0 C -4,4 C 88 % 1017,9 hPa 0,0 mm 0,0 km/h (0 Bft) W 270 0 min -5,7 C 0,0 km/h (0 Bft)
18.03.2016 06:05 -3,7 C -3,7 C 83 % 1017,9 hPa 0,0 mm 0,0 km/h (0 Bft) S 180 0 min -6,2 C 0,0 km/h (0 Bft)
18.03.2016 06:10 -3,0 C -3,2 C 83 % 1018,1 hPa 0,0 mm 0,3 km/h (0 Bft) S-SO 157 0 min -5,5 C 3,0 km/h (1 Bft)
18.03.2016 06:15 -3,0 C -3,3 C 89 % 1018,1 hPa 0,0 mm 0,3 km/h (0 Bft) NW 315 0 min -4,6 C 0,0 km/h (0 Bft)
18.03.2016 06:20 -3,4 C -3,6 C 89 % 1018,1 hPa 0,0 mm 0,3 km/h (0 Bft) NO 45 0 min -4,9 C 0,0 km/h (0 Bft)
18.03.2016 06:25 -3,4 C -3,7 C 89 % 1018,1 hPa 0,0 mm 0,0 km/h (0 Bft) N 360 0 min -4,9 C 0,0 km/h (0 Bft)
18.03.2016 06:30 -3,1 C -3,5 C 89 % 1018,3 hPa 0,0 mm 0,0 km/h (0 Bft) S 180 0 min -4,6 C 0,0 km/h (0 Bft)
18.03.2016 06:35 -3,1 C -3,6 C 89 % 1018,3 hPa 0,0 mm 0,0 km/h (0 Bft) SW 225 0 min -4,6 C 0,0 km/h (0 Bft)
18.03.2016 06:40 -3,3 C -3,7 C 89 % 1018,3 hPa 0,0 mm 0,0 km/h (0 Bft) W-NW 292 0 min -4,8 C 0,0 km/h (0 Bft)
18.03.2016 06:45 -3,4 C -3,8 C 89 % 1018,3 hPa 0,0 mm 0,0 km/h (0 Bft) W-NW 292 0 min -4,9 C 0,0 km/h (0 Bft)
18.03.2016 06:50 -3,3 C -3,7 C 89 % 1018,2 hPa 0,0 mm 0,0 km/h (0 Bft) NW 315 0 min -4,8 C 0,0 km/h (0 Bft)
18.03.2016 06:55 -3,3 C -3,7 C 89 % 1018,2 hPa 0,0 mm 0,0 km/h (0 Bft) O-SO 112 0 min -4,8 C 0,0 km/h (0 Bft)
18.03.2016 07:00 -3,3 C -3,7 C 89 % 1018,2 hPa 0,0 mm 0,0 km/h (0 Bft) O-NO 67 0 min -4,8 C 0,0 km/h (0 Bft)
18.03.2016 07:05 -3,3 C -3,6 C 89 % 1018,2 hPa 0,0 mm 0,0 km/h (0 Bft) W-SW 247 0 min -4,8 C 0,0 km/h (0 Bft)
18.03.2016 07:10 -3,1 C -3,5 C 89 % 1018,4 hPa 0,0 mm 0,0 km/h (0 Bft) NW 315 0 min -4,6 C 0,0 km/h (0 Bft)
18.03.2016 07:15 -3,1 C -3,3 C 83 % 1018,4 hPa 0,0 mm 0,0 km/h (0 Bft) W-SW 247 0 min -5,6 C 0,0 km/h (0 Bft)
18.03.2016 07:20 -3,0 C -3,2 C 83 % 1018,4 hPa 0,0 mm 0,0 km/h (0 Bft) S 180 0 min -5,5 C 3,3 km/h (1 Bft)
18.03.2016 07:25 -2,1 C -2,4 C 84 % 1018,4 hPa 0,0 mm 1,5 km/h (1 Bft) S 180 0 min -4,4 C 4,8 km/h (1 Bft)
18.03.2016 07:30 -1,8 C -2,0 C 84 % 1018,5 hPa 0,0 mm 1,8 km/h (1 Bft) S 180 0 min -4,1 C 0,0 km/h (0 Bft)
18.03.2016 07:35 -2,0 C -2,2 C 89 % 1018,5 hPa 0,0 mm 0,6 km/h (0 Bft) N-NW 337 0 min -3,6 C 0,0 km/h (0 Bft)
18.03.2016 07:40 -2,1 C -2,2 C 83 % 1018,5 hPa 0,0 mm 0,0 km/h (0 Bft) W-SW 247 0 min -4,6 C 0,0 km/h (0 Bft)
18.03.2016 07:45 -1,8 C -0,8 C 83 % 1018,5 hPa 0,0 mm 0,0 km/h (0 Bft) W-NW 292 0 min -4,3 C 0,0 km/h (0 Bft)
18.03.2016 07:50 -1,7 C -0,3 C 83 % 1018,6 hPa 0,0 mm 0,0 km/h (0 Bft) W 270 0 min -4,2 C 0,0 km/h (0 Bft)
18.03.2016 07:55 -1,5 C 0,9 C 83 % 1018,6 hPa 0,0 mm 0,0 km/h (0 Bft) SW 225 0 min -4,0 C 0,0 km/h (0 Bft)
18.03.2016 08:00 -1,2 C 2,2 C 84 % 1018,6 hPa 0,0 mm 0,0 km/h (0 Bft) W 270 5 min -3,5 C 0,0 km/h (0 Bft)
18.03.2016 08:05 -1,1 C 4,8 C 83 % 1018,6 hPa 0,0 mm 0,0 km/h (0 Bft) O-NO 67 5 min -3,6 C 0,0 km/h (0 Bft)
18.03.2016 08:10 -0,8 C 5,9 C 83 % 1018,7 hPa 0,0 mm 0,0 km/h (0 Bft) S-SO 157 5 min -3,3 C 0,0 km/h (0 Bft)
18.03.2016 08:13 -0,3 C 6,9 C 83 % 1018,7 hPa 0,0 mm 0,0 km/h (0 Bft) O-NO 67 3 min -2,8 C 0,0 km/h (0 Bft)
18.03.2016 08:16 -0,3 C 6,9 C 83 % 1018,7 hPa 0,0 mm 0,0 km/h (0 Bft) O-NO 67 3 min -2,8 C 0,0 km/h (0 Bft)
18.03.2016 08:20 -0,2 C 7,4 C 83 % 1018,7 hPa 0,0 mm 0,0 km/h (0 Bft) O-SO 112 4 min -2,7 C 0,0 km/h (0 Bft)
18.03.2016 08:25 0,2 C 8,3 C 83 % 1018,7 hPa 0,0 mm 0,0 km/h (0 Bft) SO 135 5 min -2,3 C 0,0 km/h (0 Bft)
18.03.2016 08:30 0,4 C 8,7 C 83 % 1018,9 hPa 0,0 mm 0,0 km/h (0 Bft) O-SO 112 5 min -2,1 C 0,0 km/h (0 Bft)
18.03.2016 08:35 0,8 C 10,2 C 82 % 1018,9 hPa 0,0 mm 0,0 km/h (0 Bft) O-SO 112 5 min -1,9 C 0,0 km/h (0 Bft)
18.03.2016 08:40 0,9 C 10,9 C 82 % 1018,9 hPa 0,0 mm 0,0 km/h (0 Bft) O-SO 112 5 min -1,8 C 0,0 km/h (0 Bft)
18.03.2016 08:45 1,4 C 11,7 C 81 % 1018,9 hPa 0,0 mm 0,0 km/h (0 Bft) O 90 5 min -1,5 C 0,0 km/h (0 Bft)
18.03.2016 08:50 1,6 C 12,1 C 81 % 1019,7 hPa 0,0 mm 0,0 km/h (0 Bft) O-SO 112 5 min -1,3 C 0,0 km/h (0 Bft)
18.03.2016 08:55 2,0 C 12,6 C 79 % 1019,7 hPa 0,0 mm 0,0 km/h (0 Bft) O-SO 112 5 min -1,2 C 0,0 km/h (0 Bft)
18.03.2016 09:00 2,4 C 13,3 C 79 % 1019,7 hPa 0,0 mm 0,0 km/h (0 Bft) O 90 5 min -0,9 C 0,0 km/h (0 Bft)
18.03.2016 09:05 3,4 C 14,1 C 78 % 1019,7 hPa 0,0 mm 0,0 km/h (0 Bft) O-NO 67 5 min -0,1 C 0,0 km/h (0 Bft)
18.03.2016 09:11 4,2 C 14,6 C 77 % 1020,2 hPa 0,0 mm 0,0 km/h (0 Bft) O-NO 67 5 min 0,5 C 0,0 km/h (0 Bft)
18.03.2016 09:12 4,2 C 14,6 C 77 % 1020,2 hPa 0,0 mm 0,0 km/h (0 Bft) O-NO 67 1 min 0,5 C 0,0 km/h (0 Bft)
18.03.2016 09:13 4,2 C 14,6 C 77 % 1020,2 hPa 0,0 mm 0,0 km/h (0 Bft) O-NO 67 1 min 0,5 C 0,0 km/h (0 Bft)
18.03.2016 09:14 4,5 C 15,8 C 76 % 1020,2 hPa 0,0 mm 0,0 km/h (0 Bft) O 90 1 min 0,6 C 0,0 km/h (0 Bft)
18.03.2016 09:15 4,5 C 15,8 C 76 % 1020,2 hPa 0,0 mm 0,0 km/h (0 Bft) O 90 1 min 0,6 C 0,0 km/h (0 Bft)
18.03.2016 09:17 4,5 C 15,8 C 76 % 1020,2 hPa 0,0 mm 0,0 km/h (0 Bft) O 90 2 min 0,6 C 0,0 km/h (0 Bft)
18.03.2016 09:28 5,1 C 17,4 C 74 % 1020,2 hPa 0,0 mm 0,0 km/h (0 Bft) O-NO 67 5 min 0,9 C 0,0 km/h (0 Bft)
18.03.2016 09:29 5,6 C 18,0 C 73 % 1020,4 hPa 0,0 mm 0,0 km/h (0 Bft) O-SO 112 1 min 1,2 C 0,0 km/h (0 Bft)
18.03.2016 09:30 5,6 C 18,0 C 73 % 1020,4 hPa 0,0 mm 0,0 km/h (0 Bft) O-SO 112 1 min 1,2 C 0,0 km/h (0 Bft)
18.03.2016 09:31 5,6 C 18,0 C 73 % 1020,4 hPa 0,0 mm 0,0 km/h (0 Bft) O-SO 112 1 min 1,2 C 0,0 km/h (0 Bft)
18.03.2016 09:32 5,6 C 18,0 C 73 % 1020,4 hPa 0,0 mm 0,0 km/h (0 Bft) O-SO 112 1 min 1,2 C 0,0 km/h (0 Bft)
18.03.2016 09:33 6,4 C 18,2 C 70 % 1020,4 hPa 0,0 mm 0,0 km/h (0 Bft) O-NO 67 1 min 1,3 C 0,0 km/h (0 Bft)
18.03.2016 09:38 6,9 C 18,5 C 70 % 1020,4 hPa 0,0 mm 0,0 km/h (0 Bft) O-NO 67 5 min 1,8 C 0,0 km/h (0 Bft)
18.03.2016 09:43 6,8 C 18,2 C 68 % 1020,4 hPa 0,0 mm 0,0 km/h (0 Bft) NO 45 5 min 1,3 C 0,0 km/h (0 Bft)
18.03.2016 09:48 6,9 C 18,3 C 67 % 1020,4 hPa 0,0 mm 0,0 km/h (0 Bft) O-NO 67 5 min 1,2 C 0,0 km/h (0 Bft)
18.03.2016 09:53 7,3 C 18,2 C 64 % 1020,4 hPa 0,0 mm 0,0 km/h (0 Bft) O-SO 112 5 min 1,0 C 0,0 km/h (0 Bft)
18.03.2016 09:58 7,6 C 18,0 C 64 % 1020,4 hPa 0,0 mm 0,0 km/h (0 Bft) O-SO 112 5 min 1,2 C 0,0 km/h (0 Bft)
18.03.2016 10:03 7,9 C 17,7 C 64 % 1020,4 hPa 0,0 mm 0,0 km/h (0 Bft) O-SO 112 5 min 1,5 C 0,0 km/h (0 Bft)
18.03.2016 10:08 8,5 C 17,8 C 62 % 1020,5 hPa 0,0 mm 0,0 km/h (0 Bft) O-SO 112 5 min 1,6 C 0,0 km/h (0 Bft)
18.03.2016 10:13 8,8 C 17,9 C 62 % 1020,5 hPa 0,0 mm 0,0 km/h (0 Bft) N-NO 22 5 min 1,9 C 0,0 km/h (0 Bft)
18.03.2016 10:18 9,2 C 17,8 C 60 % 1020,5 hPa 0,0 mm 0,0 km/h (0 Bft) NO 45 5 min 1,8 C 0,0 km/h (0 Bft)
18.03.2016 10:23 8,8 C 16,8 C 59 % 1020,5 hPa 0,0 mm 0,3 km/h (0 Bft) O-NO 67 5 min 1,2 C 4,5 km/h (1 Bft)
18.03.2016 10:28 8,4 C 16,2 C 58 % 1020,6 hPa 0,0 mm 0,6 km/h (0 Bft) N-NO 22 5 min 0,6 C 0,0 km/h (0 Bft)
18.03.2016 10:33 9,0 C 16,4 C 59 % 1020,6 hPa 0,0 mm 0,6 km/h (0 Bft) W-NW 292 5 min 1,4 C 0,0 km/h (0 Bft)
18.03.2016 10:38 9,2 C 16,4 C 59 % 1020,6 hPa 0,0 mm 0,9 km/h (0 Bft) N-NW 337 5 min 1,6 C 11,3 km/h (2 Bft)
18.03.2016 10:43 9,6 C 16,2 C 58 % 1020,6 hPa 0,0 mm 1,2 km/h (1 Bft) N 360 5 min 1,8 C 0,0 km/h (0 Bft)
18.03.2016 10:48 9,6 C 16,6 C 58 % 1020,6 hPa 0,0 mm 0,6 km/h (0 Bft) W 270 5 min 1,8 C 0,0 km/h (0 Bft)
18.03.2016 10:53 9,7 C 16,6 C 58 % 1020,6 hPa 0,0 mm 0,3 km/h (0 Bft) NW 315 5 min 1,8 C 0,0 km/h (0 Bft)
18.03.2016 10:58 10,0 C 16,9 C 57 % 1020,6 hPa 0,0 mm 0,3 km/h (0 Bft) NO 45 5 min 1,9 C 0,0 km/h (0 Bft)
18.03.2016 11:03 10,0 C 17,2 C 57 % 1020,6 hPa 0,0 mm 1,5 km/h (1 Bft) N 360 5 min 1,9 C 8,3 km/h (2 Bft)
18.03.2016 11:08 10,1 C 17,1 C 56 % 1020,5 hPa 0,0 mm 2,7 km/h (1 Bft) N-NW 337 5 min 1,7 C 0,0 km/h (0 Bft)
18.03.2016 11:13 10,3 C 17,4 C 56 % 1020,5 hPa 0,0 mm 3,6 km/h (1 Bft) NW 315 5 min 1,9 C 9,5 km/h (2 Bft)
18.03.2016 11:17 10,3 C 17,4 C 56 % 1020,5 hPa 0,0 mm 3,6 km/h (1 Bft) NW 315 4 min 1,9 C 9,5 km/h (2 Bft)
18.03.2016 11:20 10,3 C 16,9 C 56 % 1020,5 hPa 0,0 mm 4,5 km/h (1 Bft) N-NW 337 3 min 1,9 C 4,8 km/h (1 Bft)
18.03.2016 11:25 10,0 C 17,6 C 54 % 1020,5 hPa 0,0 mm 2,7 km/h (1 Bft) N-NO 22 5 min 1,1 C 3,0 km/h (1 Bft)
18.03.2016 11:30 10,1 C 18,4 C 54 % 1020,7 hPa 0,0 mm 1,5 km/h (1 Bft) W 270 5 min 1,2 C 6,6 km/h (2 Bft)
18.03.2016 11:35 9,7 C 17,8 C 54 % 1020,7 hPa 0,0 mm 3,9 km/h (1 Bft) W 270 5 min 0,9 C 3,6 km/h (1 Bft)
18.03.2016 11:40 10,1 C 17,9 C 55 % 1020,7 hPa 0,0 mm 4,8 km/h (1 Bft) W 270 5 min 1,5 C 6,6 km/h (2 Bft)
18.03.2016 11:45 10,0 C 17,6 C 55 % 1020,7 hPa 0,0 mm 4,8 km/h (1 Bft) W-SW 247 5 min 1,4 C 4,2 km/h (1 Bft)
18.03.2016 11:50 9,8 C 17,4 C 54 % 1020,6 hPa 0,0 mm 5,1 km/h (1 Bft) NW 315 5 min 0,9 C 0,0 km/h (0 Bft)
18.03.2016 11:55 10,0 C 17,7 C 53 % 1020,6 hPa 0,0 mm 3,9 km/h (1 Bft) W 270 5 min 0,9 C 6,6 km/h (2 Bft)
18.03.2016 12:00 10,1 C 17,7 C 54 % 1020,6 hPa 0,0 mm 2,4 km/h (1 Bft) W-SW 247 5 min 1,2 C 6,0 km/h (2 Bft)
18.03.2016 12:05 10,3 C 17,3 C 54 % 1020,6 hPa 0,0 mm 3,0 km/h (1 Bft) W-NW 292 5 min 1,4 C 0,0 km/h (0 Bft)
18.03.2016 12:10 10,9 C 16,4 C 53 % 1020,2 hPa 0,0 mm 1,8 km/h (1 Bft) S-SW 202 5 min 1,7 C 0,0 km/h (0 Bft)
18.03.2016 12:15 10,5 C 15,7 C 52 % 1020,2 hPa 0,0 mm 2,1 km/h (1 Bft) S 180 0 min 1,1 C 3,9 km/h (1 Bft)
18.03.2016 12:20 10,5 C 15,4 C 51 % 1020,2 hPa 0,0 mm 2,4 km/h (1 Bft) SO 135 5 min 0,8 C 0,0 km/h (0 Bft)
18.03.2016 12:25 11,6 C 15,9 C 53 % 1020,2 hPa 0,0 mm 1,5 km/h (1 Bft) N-NO 22 0 min 2,4 C 5,7 km/h (1 Bft)
18.03.2016 12:30 11,9 C 16,4 C 53 % 1020,4 hPa 0,0 mm 2,4 km/h (1 Bft) N-NW 337 0 min 2,6 C 3,0 km/h (1 Bft)
18.03.2016 12:35 11,0 C 17,0 C 49 % 1020,4 hPa 0,0 mm 4,5 km/h (1 Bft) W-SW 247 5 min 0,7 C 12,2 km/h (2 Bft)
18.03.2016 12:40 10,9 C 17,7 C 50 % 1020,4 hPa 0,0 mm 3,6 km/h (1 Bft) NW 315 5 min 0,9 C 5,4 km/h (1 Bft)
18.03.2016 12:45 11,4 C 18,2 C 51 % 1020,4 hPa 0,0 mm 2,4 km/h (1 Bft) S-SO 157 5 min 1,6 C 3,9 km/h (1 Bft)
18.03.2016 12:50 11,6 C 18,6 C 51 % 1020,0 hPa 0,0 mm 3,0 km/h (1 Bft) N-NO 22 5 min 1,8 C 7,7 km/h (2 Bft)
18.03.2016 12:55 11,9 C 18,6 C 49 % 1020,0 hPa 0,0 mm 3,9 km/h (1 Bft) W-SW 247 5 min 1,5 C 0,0 km/h (0 Bft)
18.03.2016 13:00 11,3 C 18,5 C 48 % 1020,0 hPa 0,0 mm 4,2 km/h (1 Bft) SO 135 5 min 0,7 C 0,0 km/h (0 Bft)
18.03.2016 13:05 11,6 C 18,5 C 49 % 1020,0 hPa 0,0 mm 3,6 km/h (1 Bft) N-NW 337 5 min 1,3 C 13,4 km/h (3 Bft)
18.03.2016 13:10 12,2 C 18,8 C 48 % 1019,8 hPa 0,0 mm 3,0 km/h (1 Bft) N-NW 337 5 min 1,5 C 6,9 km/h (2 Bft)
18.03.2016 13:15 12,2 C 18,6 C 47 % 1019,8 hPa 0,0 mm 4,5 km/h (1 Bft) NW 315 5 min 1,2 C 7,2 km/h (2 Bft)
18.03.2016 13:20 12,3 C 18,3 C 48 % 1019,8 hPa 0,0 mm 6,3 km/h (2 Bft) W-SW 247 5 min 1,6 C 6,6 km/h (2 Bft)
18.03.2016 13:25 12,4 C 17,8 C 47 % 1019,8 hPa 0,0 mm 7,2 km/h (2 Bft) W-NW 292 5 min 1,4 C 15,8 km/h (3 Bft)
18.03.2016 13:30 12,6 C 17,8 C 47 % 1019,4 hPa 0,0 mm 6,0 km/h (2 Bft) NW 315 5 min 1,6 C 5,4 km/h (1 Bft)
18.03.2016 13:35 12,9 C 18,0 C 46 % 1019,4 hPa 0,0 mm 5,7 km/h (1 Bft) N-NO 22 5 min 1,6 C 12,8 km/h (3 Bft)
18.03.2016 13:40 12,4 C 17,6 C 45 % 1019,4 hPa 0,0 mm 7,5 km/h (2 Bft) N-NO 22 5 min 0,8 C 14,6 km/h (3 Bft)
18.03.2016 13:45 12,0 C 17,2 C 45 % 1019,4 hPa 0,0 mm 8,9 km/h (2 Bft) W 270 5 min 0,4 C 8,6 km/h (2 Bft)
18.03.2016 13:50 12,1 C 17,2 C 46 % 1019,3 hPa 0,0 mm 8,3 km/h (2 Bft) NW 315 5 min 0,8 C 12,2 km/h (2 Bft)
18.03.2016 13:55 11,6 C 17,5 C 45 % 1019,3 hPa 0,0 mm 6,9 km/h (2 Bft) NW 315 5 min 0,1 C 9,8 km/h (2 Bft)
18.03.2016 14:00 11,9 C 17,6 C 46 % 1019,3 hPa 0,0 mm 6,3 km/h (2 Bft) N 360 5 min 0,7 C 9,8 km/h (2 Bft)
18.03.2016 14:05 12,2 C 17,7 C 45 % 1019,3 hPa 0,0 mm 6,9 km/h (2 Bft) O-NO 67 5 min 0,6 C 6,0 km/h (2 Bft)
18.03.2016 14:10 12,3 C 17,2 C 46 % 1018,8 hPa 0,0 mm 8,0 km/h (2 Bft) SO 135 5 min 1,0 C 4,2 km/h (1 Bft)
18.03.2016 14:15 12,8 C 17,7 C 45 % 1018,8 hPa 0,0 mm 6,6 km/h (2 Bft) W-SW 247 0 min 1,2 C 5,1 km/h (1 Bft)
18.03.2016 14:18 12,8 C 17,7 C 45 % 1018,8 hPa 0,0 mm 6,6 km/h (2 Bft) W-SW 247 0 min 1,2 C 5,1 km/h (1 Bft)
18.03.2016 14:20 12,4 C 17,9 C 44 % 1018,8 hPa 0,0 mm 5,7 km/h (1 Bft) N-NW 337 2 min 0,5 C 11,0 km/h (2 Bft)
18.03.2016 14:25 12,2 C 17,1 C 45 % 1018,8 hPa 0,0 mm 8,6 km/h (2 Bft) W-NW 292 5 min 0,6 C 17,6 km/h (3 Bft)
18.03.2016 14:30 11,7 C 17,1 C 43 % 1018,2 hPa 0,0 mm 8,6 km/h (2 Bft) S-SW 202 5 min -0,5 C 6,6 km/h (2 Bft)
18.03.2016 14:35 11,4 C 17,5 C 43 % 1018,2 hPa 0,0 mm 6,6 km/h (2 Bft) W-SW 247 5 min -0,7 C 7,2 km/h (2 Bft)
18.03.2016 14:40 11,3 C 17,6 C 44 % 1018,2 hPa 0,0 mm 6,0 km/h (2 Bft) W-NW 292 5 min -0,5 C 14,0 km/h (3 Bft)
18.03.2016 14:45 11,3 C 17,4 C 43 % 1018,2 hPa 0,0 mm 6,9 km/h (2 Bft) W-NW 292 5 min -0,8 C 6,6 km/h (2 Bft)
18.03.2016 14:50 11,4 C 17,5 C 44 % 1018,0 hPa 0,0 mm 6,9 km/h (2 Bft) W 270 5 min -0,4 C 4,5 km/h (1 Bft)
18.03.2016 14:55 11,9 C 17,1 C 43 % 1018,0 hPa 0,0 mm 7,7 km/h (2 Bft) W-SW 247 5 min -0,3 C 14,0 km/h (3 Bft)
18.03.2016 15:00 11,9 C 16,9 C 43 % 1018,0 hPa 0,0 mm 8,6 km/h (2 Bft) W-NW 292 5 min -0,3 C 9,2 km/h (2 Bft)
18.03.2016 15:05 11,9 C 16,9 C 43 % 1018,0 hPa 0,0 mm 7,5 km/h (2 Bft) W 270 5 min -0,3 C 12,8 km/h (3 Bft)
18.03.2016 15:10 11,6 C 16,5 C 43 % 1017,8 hPa 0,0 mm 8,0 km/h (2 Bft) W 270 5 min -0,5 C 6,9 km/h (2 Bft)
18.03.2016 15:15 11,6 C 16,3 C 43 % 1017,8 hPa 0,0 mm 8,9 km/h (2 Bft) SW 225 5 min -0,5 C 5,4 km/h (1 Bft)
18.03.2016 15:20 11,7 C 16,4 C 43 % 1017,8 hPa 0,0 mm 7,5 km/h (2 Bft) N-NW 337 5 min -0,5 C 6,6 km/h (2 Bft)
18.03.2016 15:25 12,0 C 16,5 C 43 % 1017,8 hPa 0,0 mm 7,2 km/h (2 Bft) NW 315 5 min -0,2 C 10,4 km/h (2 Bft)
18.03.2016 15:30 11,9 C 16,3 C 43 % 1017,5 hPa 0,0 mm 7,5 km/h (2 Bft) W-NW 292 5 min -0,3 C 6,0 km/h (2 Bft)
18.03.2016 15:35 11,7 C 16,5 C 43 % 1017,5 hPa 0,0 mm 7,2 km/h (2 Bft) W-NW 292 5 min -0,5 C 9,8 km/h (2 Bft)
18.03.2016 15:40 11,5 C 16,4 C 44 % 1017,5 hPa 0,0 mm 6,6 km/h (2 Bft) W 270 5 min -0,3 C 6,6 km/h (2 Bft)
18.03.2016 15:45 11,6 C 16,4 C 45 % 1017,5 hPa 0,0 mm 6,6 km/h (2 Bft) N-NW 337 5 min 0,1 C 8,3 km/h (2 Bft)
18.03.2016 15:50 11,5 C 16,2 C 45 % 1017,0 hPa 0,0 mm 6,9 km/h (2 Bft) N-NW 337 5 min -0,0 C 15,2 km/h (3 Bft)
18.03.2016 15:55 11,5 C 15,5 C 46 % 1017,0 hPa 0,0 mm 9,2 km/h (2 Bft) N 360 5 min 0,3 C 4,2 km/h (1 Bft)
18.03.2016 16:00 11,5 C 15,3 C 46 % 1017,0 hPa 0,0 mm 8,0 km/h (2 Bft) NW 315 5 min 0,3 C 6,6 km/h (2 Bft)
18.03.2016 16:05 11,3 C 14,7 C 46 % 1017,0 hPa 0,0 mm 5,7 km/h (1 Bft) W-SW 247 5 min 0,1 C 0,0 km/h (0 Bft)
18.03.2016 16:11 10,8 C 14,4 C 46 % 1016,9 hPa 0,0 mm 6,3 km/h (2 Bft) N 0 5 min -0,3 C 7,2 km/h (2 Bft)
18.03.2016 16:15 10,8 C 13,7 C 47 % 1016,9 hPa 0,0 mm 5,7 km/h (1 Bft) N 0 0 min -0,1 C 6,3 km/h (2 Bft)
18.03.2016 16:20 10,8 C 13,3 C 47 % 1016,9 hPa 0,0 mm 6,0 km/h (2 Bft) W-NW 292 0 min -0,1 C 17,9 km/h (3 Bft)
18.03.2016 16:25 10,6 C 12,6 C 47 % 1016,9 hPa 0,0 mm 6,6 km/h (2 Bft) N-NO 22 0 min -0,2 C 3,9 km/h (1 Bft)
18.03.2016 16:30 10,9 C 12,5 C 47 % 1016,7 hPa 0,0 mm 6,0 km/h (2 Bft) NW 315 0 min 0,0 C 3,0 km/h (1 Bft)
18.03.2016 16:35 11,0 C 12,9 C 47 % 1016,7 hPa 0,0 mm 3,3 km/h (1 Bft) N-NO 22 0 min 0,1 C 0,0 km/h (0 Bft)
18.03.2016 16:40 10,5 C 13,5 C 47 % 1016,7 hPa 0,0 mm 2,1 km/h (1 Bft) W 270 5 min -0,3 C 0,0 km/h (0 Bft)
18.03.2016 16:45 10,1 C 13,2 C 47 % 1016,7 hPa 0,0 mm 2,7 km/h (1 Bft) W-NW 292 5 min -0,7 C 0,0 km/h (0 Bft)
18.03.2016 16:50 10,1 C 12,9 C 47 % 1016,7 hPa 0,0 mm 3,9 km/h (1 Bft) W-SW 247 5 min -0,7 C 8,9 km/h (2 Bft)
18.03.2016 16:55 9,8 C 12,6 C 48 % 1016,7 hPa 0,0 mm 4,2 km/h (1 Bft) W 270 5 min -0,7 C 4,2 km/h (1 Bft)
18.03.2016 17:00 9,6 C 11,9 C 47 % 1016,7 hPa 0,0 mm 4,8 km/h (1 Bft) W-NW 292 0 min -1,1 C 6,3 km/h (2 Bft)
18.03.2016 17:05 9,5 C 11,0 C 48 % 1016,7 hPa 0,0 mm 5,1 km/h (1 Bft) N-NW 337 0 min -1,0 C 0,0 km/h (0 Bft)
18.03.2016 17:10 9,2 C 10,8 C 47 % 1016,8 hPa 0,0 mm 4,2 km/h (1 Bft) N 0 0 min -1,5 C 5,7 km/h (1 Bft)
18.03.2016 17:15 8,9 C 10,7 C 47 % 1016,8 hPa 0,0 mm 2,1 km/h (1 Bft) W 270 0 min -1,8 C 0,0 km/h (0 Bft)
18.03.2016 17:19 8,7 C 10,3 C 47 % 1016,8 hPa 0,0 mm 3,6 km/h (1 Bft) NW 315 0 min -2,0 C 5,1 km/h (1 Bft)
18.03.2016 17:20 8,7 C 10,3 C 47 % 1016,8 hPa 0,0 mm 3,6 km/h (1 Bft) NW 315 0 min -2,0 C 5,1 km/h (1 Bft)
18.03.2016 17:25 8,6 C 9,8 C 48 % 1016,8 hPa 0,0 mm 4,5 km/h (1 Bft) W 270 0 min -1,8 C 7,7 km/h (2 Bft)
18.03.2016 17:30 8,5 C 9,5 C 49 % 1016,8 hPa 0,0 mm 3,9 km/h (1 Bft) W 270 0 min -1,6 C 0,0 km/h (0 Bft)
18.03.2016 17:35 8,3 C 9,0 C 49 % 1016,8 hPa 0,0 mm 3,0 km/h (1 Bft) N-NW 337 0 min -1,8 C 9,8 km/h (2 Bft)
18.03.2016 17:40 8,3 C 8,7 C 49 % 1016,8 hPa 0,0 mm 3,3 km/h (1 Bft) N-NO 22 0 min -1,8 C 7,2 km/h (2 Bft)
18.03.2016 17:45 8,0 C 8,4 C 50 % 1016,8 hPa 0,0 mm 2,4 km/h (1 Bft) W 270 0 min -1,8 C 3,9 km/h (1 Bft)
18.03.2016 17:50 7,9 C 8,1 C 50 % 1016,9 hPa 0,0 mm 2,1 km/h (1 Bft) W-SW 247 0 min -1,9 C 4,8 km/h (1 Bft)
18.03.2016 17:55 7,8 C 8,0 C 50 % 1016,9 hPa 0,0 mm 3,6 km/h (1 Bft) W 270 0 min -2,0 C 0,0 km/h (0 Bft)
18.03.2016 18:00 7,6 C 7,8 C 50 % 1016,9 hPa 0,0 mm 3,6 km/h (1 Bft) SW 225 0 min -2,1 C 0,0 km/h (0 Bft)
18.03.2016 18:05 7,8 C 7,7 C 50 % 1016,9 hPa 0,0 mm 1,8 km/h (1 Bft) SW 225 0 min -2,0 C 3,9 km/h (1 Bft)
18.03.2016 18:10 7,6 C 7,5 C 50 % 1016,9 hPa 0,0 mm 1,2 km/h (1 Bft) SW 225 0 min -2,1 C 0,0 km/h (0 Bft)
18.03.2016 18:15 7,5 C 7,3 C 51 % 1016,9 hPa 0,0 mm 0,6 km/h (0 Bft) W-SW 247 0 min -2,0 C 0,0 km/h (0 Bft)
18.03.2016 18:20 7,3 C 7,1 C 51 % 1016,9 hPa 0,0 mm 0,3 km/h (0 Bft) S 180 0 min -2,2 C 3,6 km/h (1 Bft)
18.03.2016 18:25 7,1 C 6,8 C 52 % 1016,9 hPa 0,0 mm 2,4 km/h (1 Bft) S 180 0 min -2,1 C 3,9 km/h (1 Bft)
18.03.2016 18:30 6,9 C 6,7 C 52 % 1016,8 hPa 0,0 mm 3,6 km/h (1 Bft) S 180 0 min -2,3 C 3,6 km/h (1 Bft)
18.03.2016 18:35 6,5 C 6,4 C 53 % 1016,8 hPa 0,0 mm 4,2 km/h (1 Bft) S-SO 157 0 min -2,4 C 4,5 km/h (1 Bft)
18.03.2016 18:40 6,2 C 6,1 C 53 % 1016,8 hPa 0,0 mm 3,9 km/h (1 Bft) S 180 0 min -2,7 C 4,2 km/h (1 Bft)
18.03.2016 18:45 5,9 C 5,7 C 54 % 1016,8 hPa 0,0 mm 3,0 km/h (1 Bft) S-SO 157 0 min -2,7 C 4,2 km/h (1 Bft)
18.03.2016 18:50 5,5 C 5,4 C 56 % 1016,9 hPa 0,0 mm 3,3 km/h (1 Bft) S-SO 157 0 min -2,6 C 5,1 km/h (1 Bft)
18.03.2016 18:55 5,1 C 5,0 C 56 % 1016,9 hPa 0,0 mm 4,5 km/h (1 Bft) SO 135 0 min -2,9 C 4,2 km/h (1 Bft)
18.03.2016 19:00 4,8 C 4,7 C 57 % 1016,9 hPa 0,0 mm 3,6 km/h (1 Bft) O-NO 67 0 min -3,0 C 0,0 km/h (0 Bft)
18.03.2016 19:05 4,4 C 4,1 C 58 % 1016,9 hPa 0,0 mm 0,6 km/h (0 Bft) S 180 0 min -3,1 C 0,0 km/h (0 Bft)
18.03.2016 19:10 4,5 C 4,0 C 58 % 1016,9 hPa 0,0 mm 0,9 km/h (0 Bft) S-SO 157 0 min -3,0 C 4,5 km/h (1 Bft)
18.03.2016 19:15 4,4 C 3,9 C 58 % 1016,9 hPa 0,0 mm 1,5 km/h (1 Bft) S-SO 157 0 min -3,1 C 0,0 km/h (0 Bft)
18.03.2016 19:20 4,3 C 3,8 C 58 % 1016,9 hPa 0,0 mm 1,2 km/h (1 Bft) S 180 0 min -3,2 C 0,0 km/h (0 Bft)
18.03.2016 19:25 4,2 C 3,7 C 58 % 1016,9 hPa 0,0 mm 0,9 km/h (0 Bft) S-SO 157 0 min -3,3 C 3,3 km/h (1 Bft)
18.03.2016 19:30 3,9 C 3,5 C 59 % 1017,1 hPa 0,0 mm 1,5 km/h (1 Bft) S-SO 157 0 min -3,4 C 5,4 km/h (1 Bft)
18.03.2016 19:35 3,5 C 3,2 C 59 % 1017,1 hPa 0,0 mm 3,0 km/h (1 Bft) S-SO 157 0 min -3,7 C 5,1 km/h (1 Bft)
18.03.2016 19:40 3,5 C 3,3 C 60 % 1017,1 hPa 0,0 mm 3,6 km/h (1 Bft) S-SO 157 0 min -3,5 C 3,3 km/h (1 Bft)
18.03.2016 19:45 3,4 C 3,1 C 60 % 1017,1 hPa 0,0 mm 2,4 km/h (1 Bft) S-SO 157 0 min -3,6 C 0,0 km/h (0 Bft)
18.03.2016 19:50 3,4 C 3,1 C 61 % 1017,0 hPa 0,0 mm 1,2 km/h (1 Bft) S-SO 157 0 min -3,4 C 0,0 km/h (0 Bft)
18.03.2016 19:55 3,4 C 2,9 C 61 % 1017,0 hPa 0,0 mm 0,3 km/h (0 Bft) SO 135 0 min -3,4 C 0,0 km/h (0 Bft)
18.03.2016 20:00 3,2 C 2,7 C 62 % 1017,0 hPa 0,0 mm 0,0 km/h (0 Bft) SO 135 0 min -3,4 C 0,0 km/h (0 Bft)
18.03.2016 20:05 3,0 C 2,5 C 63 % 1017,0 hPa 0,0 mm 0,0 km/h (0 Bft) SO 135 0 min -3,3 C 0,0 km/h (0 Bft)
18.03.2016 20:10 3,0 C 2,4 C 63 % 1017,2 hPa 0,0 mm 0,0 km/h (0 Bft) SO 135 0 min -3,3 C 0,0 km/h (0 Bft)
18.03.2016 20:15 2,8 C 2,2 C 64 % 1017,2 hPa 0,0 mm 0,0 km/h (0 Bft) SO 135 0 min -3,3 C 0,0 km/h (0 Bft)
18.03.2016 20:18 2,7 C 2,0 C 65 % 1017,2 hPa 0,0 mm 0,0 km/h (0 Bft) SO 135 0 min -3,2 C 0,0 km/h (0 Bft)
18.03.2016 20:20 2,7 C 2,0 C 65 % 1017,2 hPa 0,0 mm 0,0 km/h (0 Bft) SO 135 0 min -3,2 C 0,0 km/h (0 Bft)
18.03.2016 20:25 2,7 C 1,9 C 65 % 1017,2 hPa 0,0 mm 0,0 km/h (0 Bft) O-SO 112 0 min -3,2 C 0,0 km/h (0 Bft)
18.03.2016 20:30 2,4 C 1,7 C 65 % 1017,3 hPa 0,0 mm 0,0 km/h (0 Bft) S-SO 157 0 min -3,5 C 0,0 km/h (0 Bft)
18.03.2016 20:35 2,2 C 1,6 C 67 % 1017,3 hPa 0,0 mm 0,0 km/h (0 Bft) O 90 0 min -3,3 C 0,0 km/h (0 Bft)
18.03.2016 20:40 1,6 C 1,1 C 66 % 1017,3 hPa 0,0 mm 0,0 km/h (0 Bft) NO 45 0 min -4,1 C 0,0 km/h (0 Bft)
18.03.2016 20:45 1,1 C 0,6 C 66 % 1017,3 hPa 0,0 mm 0,0 km/h (0 Bft) NW 315 0 min -4,5 C 0,0 km/h (0 Bft)
18.03.2016 20:50 1,2 C 0,6 C 66 % 1017,4 hPa 0,0 mm 0,0 km/h (0 Bft) O-NO 67 0 min -4,4 C 0,0 km/h (0 Bft)
18.03.2016 20:55 1,2 C 0,5 C 67 % 1017,4 hPa 0,0 mm 0,0 km/h (0 Bft) SO 135 0 min -4,2 C 0,0 km/h (0 Bft)
18.03.2016 21:00 1,1 C 0,4 C 67 % 1017,4 hPa 0,0 mm 0,0 km/h (0 Bft) O-SO 112 0 min -4,3 C 0,0 km/h (0 Bft)
18.03.2016 21:05 1,7 C 1,1 C 66 % 1017,4 hPa 0,0 mm 0,0 km/h (0 Bft) SO 135 0 min -4,0 C 0,0 km/h (0 Bft)
18.03.2016 21:10 2,2 C 1,3 C 69 % 1017,6 hPa 0,0 mm 0,0 km/h (0 Bft) O-SO 112 0 min -2,9 C 0,0 km/h (0 Bft)
18.03.2016 21:15 2,1 C 1,3 C 68 % 1017,6 hPa 0,0 mm 0,0 km/h (0 Bft) S-SO 157 0 min -3,2 C 0,0 km/h (0 Bft)
18.03.2016 21:20 2,1 C 1,3 C 68 % 1017,6 hPa 0,0 mm 0,0 km/h (0 Bft) O 90 0 min -3,2 C 0,0 km/h (0 Bft)
18.03.2016 21:25 2,2 C 1,3 C 68 % 1017,6 hPa 0,0 mm 0,0 km/h (0 Bft) O-SO 112 0 min -3,1 C 0,0 km/h (0 Bft)
18.03.2016 21:30 2,3 C 1,4 C 68 % 1017,6 hPa 0,0 mm 0,0 km/h (0 Bft) S 180 0 min -3,0 C 3,3 km/h (1 Bft)
18.03.2016 21:35 2,4 C 1,6 C 67 % 1017,6 hPa 0,0 mm 0,3 km/h (0 Bft) SO 135 0 min -3,1 C 0,0 km/h (0 Bft)
18.03.2016 21:40 2,3 C 1,6 C 67 % 1017,6 hPa 0,0 mm 0,3 km/h (0 Bft) S-SO 157 0 min -3,2 C 0,0 km/h (0 Bft)
18.03.2016 21:45 2,3 C 1,5 C 67 % 1017,6 hPa 0,0 mm 0,0 km/h (0 Bft) SO 135 0 min -3,2 C 3,6 km/h (1 Bft)
18.03.2016 21:50 2,3 C 1,5 C 67 % 1017,5 hPa 0,0 mm 0,0 km/h (0 Bft) O-SO 112 0 min -3,2 C 0,0 km/h (0 Bft)
18.03.2016 21:55 2,2 C 1,4 C 67 % 1017,5 hPa 0,0 mm 0,0 km/h (0 Bft) O-NO 67 0 min -3,3 C 0,0 km/h (0 Bft)
18.03.2016 22:00 1,9 C 1,2 C 68 % 1017,5 hPa 0,0 mm 0,0 km/h (0 Bft) SO 135 0 min -3,4 C 0,0 km/h (0 Bft)
18.03.2016 22:05 1,6 C 1,0 C 68 % 1017,5 hPa 0,0 mm 0,0 km/h (0 Bft) S 180 0 min -3,7 C 0,0 km/h (0 Bft)
18.03.2016 22:10 1,8 C 1,0 C 69 % 1017,4 hPa 0,0 mm 0,0 km/h (0 Bft) S-SO 157 0 min -3,3 C 0,0 km/h (0 Bft)
18.03.2016 22:15 1,9 C 1,1 C 69 % 1017,4 hPa 0,0 mm 0,0 km/h (0 Bft) SO 135 0 min -3,2 C 0,0 km/h (0 Bft)
18.03.2016 22:20 1,9 C 1,1 C 69 % 1017,4 hPa 0,0 mm 0,0 km/h (0 Bft) W 270 0 min -3,2 C 0,0 km/h (0 Bft)
18.03.2016 22:25 1,9 C 1,1 C 69 % 1017,4 hPa 0,0 mm 0,0 km/h (0 Bft) O-SO 112 0 min -3,2 C 0,0 km/h (0 Bft)
18.03.2016 22:30 1,9 C 1,1 C 69 % 1017,4 hPa 0,0 mm 0,0 km/h (0 Bft) S-SO 157 0 min -3,2 C 0,0 km/h (0 Bft)
18.03.2016 22:35 1,6 C 0,8 C 69 % 1017,4 hPa 0,0 mm 0,0 km/h (0 Bft) NO 45 0 min -3,5 C 0,0 km/h (0 Bft)
18.03.2016 22:40 1,3 C 0,6 C 69 % 1017,4 hPa 0,0 mm 0,0 km/h (0 Bft) O 90 0 min -3,7 C 0,0 km/h (0 Bft)
18.03.2016 22:45 0,8 C 0,2 C 69 % 1017,4 hPa 0,0 mm 0,0 km/h (0 Bft) O-NO 67 0 min -4,2 C 0,0 km/h (0 Bft)
18.03.2016 22:50 0,7 C 0,0 C 69 % 1017,5 hPa 0,0 mm 0,0 km/h (0 Bft) O-NO 67 0 min -4,3 C 0,0 km/h (0 Bft)
18.03.2016 22:55 0,2 C -0,4 C 69 % 1017,5 hPa 0,0 mm 0,0 km/h (0 Bft) O-NO 67 0 min -4,8 C 0,0 km/h (0 Bft)
18.03.2016 23:00 0,1 C -0,5 C 70 % 1017,5 hPa 0,0 mm 0,0 km/h (0 Bft) NO 45 0 min -4,7 C 0,0 km/h (0 Bft)
18.03.2016 23:05 -0,1 C -0,8 C 70 % 1017,5 hPa 0,0 mm 0,0 km/h (0 Bft) N-NO 22 0 min -4,9 C 0,0 km/h (0 Bft)
18.03.2016 23:10 -0,3 C -0,9 C 70 % 1017,5 hPa 0,0 mm 0,0 km/h (0 Bft) O-NO 67 0 min -5,1 C 0,0 km/h (0 Bft)
18.03.2016 23:15 -0,1 C -0,9 C 71 % 1017,5 hPa 0,0 mm 0,0 km/h (0 Bft) O-NO 67 0 min -4,7 C 0,0 km/h (0 Bft)
18.03.2016 23:18 -0,3 C -1,0 C 71 % 1017,5 hPa 0,0 mm 0,0 km/h (0 Bft) NO 45 0 min -4,9 C 0,0 km/h (0 Bft)
18.03.2016 23:21 -0,3 C -1,0 C 71 % 1017,5 hPa 0,0 mm 0,0 km/h (0 Bft) NO 45 0 min -4,9 C 0,0 km/h (0 Bft)
18.03.2016 23:25 -0,2 C -1,0 C 73 % 1017,5 hPa 0,0 mm 0,0 km/h (0 Bft) NO 45 0 min -4,4 C 0,0 km/h (0 Bft)
18.03.2016 23:30 -0,5 C -1,2 C 72 % 1017,4 hPa 0,0 mm 0,0 km/h (0 Bft) O-NO 67 0 min -4,9 C 0,0 km/h (0 Bft)
18.03.2016 23:35 -0,8 C -1,4 C 72 % 1017,4 hPa 0,0 mm 0,0 km/h (0 Bft) O-NO 67 0 min -5,2 C 0,0 km/h (0 Bft)
18.03.2016 23:40 -0,5 C -1,2 C 73 % 1017,4 hPa 0,0 mm 0,0 km/h (0 Bft) NO 45 0 min -4,7 C 0,0 km/h (0 Bft)
18.03.2016 23:45 -1,0 C -1,6 C 72 % 1017,4 hPa 0,0 mm 0,0 km/h (0 Bft) O 90 0 min -5,4 C 0,0 km/h (0 Bft)
18.03.2016 23:50 -1,3 C -1,9 C 72 % 1017,6 hPa 0,0 mm 0,0 km/h (0 Bft) NO 45 0 min -5,7 C 0,0 km/h (0 Bft)
18.03.2016 23:55 -1,2 C -1,8 C 73 % 1017,6 hPa 0,0 mm 0,0 km/h (0 Bft) O 90 0 min -5,4 C 0,0 km/h (0 Bft)
_ Min-Zeit 06:00 06:00 15:35 17:05 - 23:55 - - - 06:05 23:55
Minimum _ -4,0 C -4,4 C 43 % 1016,7 hPa - 0,0 km/h (0 Bft) - - - -6,2 C 0,0 km/h (0 Bft)
_ Max-Zeit 13:35 13:10 07:35 11:45 23:55 15:55 - - 16:55 12:30 16:20
Maximum _ 12,9 C 18,8 C 89 % 1020,7 hPa 0,0 mm 9,2 km/h
N (2 Bft)
- - 5 min 2,6 C 17,9 km/h
W-NW (3 Bft)
Durchschnitt _ 3,4 C 5,7 C 68 % 1018,5 hPa #0,0 mm 1,7 km/h (1 Bft) W - #8:05 h -2,5 C 2,2 km/h (1 Bft)